User: anonymous   Login
Location: Schommer Observatory
(40.5200°N, 74.4500°W)
Time: 10:40:59
(UTC-04:00)
Language:

DOVE 4 - Orbit

View from above orbital plane
View from above orbital plane
View from above satellite
View from above satellite

Ground track
Ground track

The orbit data is extracted from the following two-line orbital elements,

1 39430U 13066Q   18289.06593878  .00000316  00000-0  66724-4 0  9998
2 39430  97.7114 257.3195 0150736 309.5126  49.2835 14.59141922260782
Epoch (UTC): 16 October 2018 01:34:57
Eccentricity: 0.0150736
inclination: 97.7114°
perigee height: 589 km
apogee height: 802 km
right ascension of ascending node: 257.3195°
argument of perigee: 309.5126°
revolutions per day: 14.59141922
mean anomaly at epoch: 49.2835°
orbit number at epoch: 26078

The dashed part of the orbit path shows where the satellite is in the earth's shadow,  

DLR